Theta_e
314 318 323 320 321 322 319 318 317 317 315 314 316 317 318 318 316 315 315 318 317 316 316 316 316 315 314 314 314 315 316 315 312 311 309 307 307 307 308 308 308 308 307 306 305 304 305 305 306 310 313 315 315 317 318 320 322 324 325 325 326 327 327 327 326 326 325 325 324 323 324 324 323 322 322 322 322 321 321 321 320 320 320 321 320 320
314 317 323 322 320 318 316 317 316 315 314 313 315 317 317 316 316 316 315 316 315 315 316 316 316 315 314 315 314 315 316 315 314 313 312 310 309 309 309 309 310 310 309 308 307 305 304 305 306 308 312 315 315 315 317 318 320 322 324 324 325 326 326 326 326 325 325 325 324 323 323 323 323 323 322 322 322 321 321 320 320 320 320 320 320 319
320 320 322 319 316 315 315 316 316 316 314 314 315 317 318 316 316 316 316 316 315 315 316 316 316 315 314 315 315 315 315 315 316 316 315 314 313 312 311 311 311 312 312 309 307 307 306 304 305 307 309 313 315 315 316 317 319 320 322 324 324 325 325 325 326 326 325 325 325 324 323 323 323 322 322 322 322 321 320 320 320 320 320 320 319 319
321 320 320 316 314 314 316 316 316 316 314 314 316 316 317 316 316 317 316 316 316 316 316 315 315 315 314 315 315 315 316 317 319 320 318 316 315 314 314 314 314 314 314 311 307 307 307 305 305 306 307 310 314 315 315 316 317 318 321 323 324 324 324 324 325 325 325 325 324 324 324 324 323 322 322 322 322 321 320 319 320 320 320 319 319 318
318 316 315 315 316 316 317 317 316 317 316 316 317 317 317 316 317 317 315 316 317 316 316 315 316 316 315 316 317 317 317 318 319 319 317 315 315 315 314 314 314 314 313 313 309 307 308 307 306 305 306 309 312 314 315 316 317 317 319 321 323 323 323 323 323 324 324 324 324 323 323 322 321 321 321 320 320 320 319 318 319 319 319 319 319 318
316 313 312 315 319 318 318 319 318 317 317 317 317 318 318 318 317 317 316 316 318 319 317 318 320 322 322 319 318 317 317 317 317 316 315 314 314 313 314 313 313 313 313 312 310 308 308 307 306 305 306 308 311 314 315 316 317 318 318 320 322 323 323 322 322 322 322 323 323 322 321 320 318 317 317 318 318 318 318 318 318 319 319 318 318 317
317 316 317 317 318 319 320 319 318 317 316 317 318 318 319 320 319 320 318 317 320 321 319 320 321 323 325 321 318 317 317 316 316 316 315 315 314 313 313 314 314 313 313 313 311 308 307 307 307 306 306 307 310 312 315 316 317 318 318 319 321 322 322 322 321 321 321 321 322 322 321 319 318 317 316 317 318 319 318 318 318 318 318 318 317 316
321 320 321 318 317 317 318 318 318 319 317 317 321 319 318 320 319 319 320 319 321 320 319 319 319 320 322 319 317 317 316 316 315 315 315 315 315 314 313 314 314 314 313 313 312 309 307 307 307 306 306 307 309 311 313 315 316 318 318 318 320 321 322 322 321 321 321 321 321 321 321 319 319 318 317 317 317 318 319 318 318 317 316 316 316 315
318 317 317 317 316 316 317 317 317 318 317 317 320 319 317 318 317 316 319 319 318 318 318 318 318 320 320 317 316 316 316 316 316 315 316 315 316 315 313 313 314 314 314 314 313 311 308 308 307 306 305 307 309 310 312 313 315 317 318 318 319 320 321 321 321 320 321 321 321 321 321 319 318 318 317 316 316 317 318 318 318 316 315 314 314 314
313 314 313 313 315 315 316 315 314 315 317 317 316 316 317 317 315 316 317 316 315 317 318 318 318 320 320 318 316 317 317 316 316 315 315 315 316 316 314 313 314 314 314 315 314 311 309 308 306 305 305 307 308 309 311 312 314 315 317 317 318 319 320 320 320 320 319 320 320 320 320 319 318 317 316 316 315 316 316 317 316 315 314 313 313 313
311 311 312 312 313 314 315 316 314 314 316 315 315 316 318 318 316 316 316 315 315 318 319 317 317 319 319 319 317 317 317 316 316 315 315 315 316 316 315 313 313 313 314 314 313 312 309 307 305 305 306 306 307 309 310 311 312 313 315 316 317 318 319 319 319 319 318 319 319 319 320 319 318 317 316 315 314 314 314 315 314 313 313 313 313 313
315 314 317 319 317 315 316 316 315 317 316 315 317 318 317 319 319 318 316 315 316 319 319 316 317 318 318 319 316 316 316 315 316 315 315 315 315 315 315 314 313 313 313 313 313 312 310 308 308 307 307 306 307 308 309 310 310 312 314 315 316 317 317 318 318 317 318 318 318 318 319 319 318 317 316 315 314 313 313 313 313 312 312 312 312 312
319 319 321 320 318 315 315 315 317 323 324 319 318 318 318 320 321 321 320 318 318 320 318 318 317 317 318 317 315 316 316 315 315 315 315 315 314 314 313 313 312 312 313 312 311 311 311 311 310 309 308 307 307 308 309 310 310 311 313 314 315 316 316 317 317 316 316 316 316 316 317 318 318 317 316 315 314 313 313 313 312 311 311 311 311 311
320 321 320 318 317 314 314 316 317 323 325 321 319 318 319 320 320 321 321 320 320 320 319 320 318 318 318 316 316 316 315 316 316 315 315 314 313 312 311 311 311 310 311 311 310 311 310 310 310 309 309 308 307 308 309 309 310 311 312 313 314 315 315 316 316 316 315 315 315 315 316 317 317 317 316 315 315 313 313 313 312 311 311 311 311 311
317 318 317 317 318 315 313 315 316 318 318 318 319 319 318 319 319 319 318 319 320 318 318 319 319 320 319 316 318 318 316 316 316 315 313 312 311 310 310 309 309 309 310 310 310 310 309 309 309 309 309 307 306 308 309 309 310 310 311 313 314 314 314 315 315 315 315 314 314 314 314 316 316 316 315 315 314 314 313 313 312 312 312 312 312 312
316 316 315 316 317 315 313 314 314 315 317 319 319 318 316 315 316 316 316 318 318 317 318 317 317 319 317 317 319 319 317 316 316 313 311 310 309 309 308 307 308 308 309 310 310 309 309 309 308 309 309 307 306 308 309 309 310 311 311 312 313 313 314 314 314 314 314 314 314 313 314 314 315 315 315 314 314 313 313 313 312 312 312 312 312 313
318 316 314 315 314 313 314 313 312 314 318 319 316 314 314 314 315 316 316 316 316 317 318 315 316 317 316 317 317 316 316 315 314 312 310 309 307 306 305 305 305 306 307 309 309 308 308 309 309 309 308 307 307 308 309 309 310 311 311 312 312 313 313 313 313 313 314 314 314 314 313 313 314 314 314 314 314 313 313 313 313 312 312 312 312 312
317 315 313 313 313 313 313 311 311 313 314 314 313 311 312 315 315 315 315 316 317 318 317 315 317 315 314 316 315 312 313 314 314 312 309 307 305 304 303 303 303 303 305 307 307 308 308 309 311 310 308 307 308 308 309 310 310 311 311 312 312 312 313 313 313 313 313 313 313 313 313 313 313 313 314 314 314 313 313 312 312 312 312 312 312 312
316 316 313 311 313 313 311 309 310 312 312 313 313 311 312 315 316 314 316 318 317 317 315 313 313 312 313 314 311 311 314 315 313 310 305 303 302 302 301 301 302 303 304 304 305 306 306 308 311 311 309 307 307 308 309 310 310 311 311 311 312 312 313 313 313 312 312 312 313 313 313 312 312 313 313 313 313 313 313 312 312 312 312 312 312 312
314 315 314 312 312 310 308 308 308 310 312 313 313 310 310 313 313 312 314 314 313 314 313 312 312 313 313 309 308 313 315 312 306 302 301 300 299 300 300 301 302 303 304 303 304 304 304 307 311 310 307 306 306 307 309 310 310 310 311 311 311 312 312 313 313 312 312 312 312 312 312 312 312 312 312 312 312 312 312 312 312 312 312 313 313 312
310 312 312 310 308 307 307 308 308 308 309 308 307 306 306 307 309 310 310 310 311 310 309 309 308 307 306 305 309 312 308 302 299 299 299 299 299 300 300 302 303 303 303 303 303 303 303 308 313 309 304 305 307 308 309 310 310 310 311 311 311 311 312 312 312 312 311 311 311 311 311 312 311 311 311 311 311 311 312 311 312 312 312 312 313 313
305 305 306 304 304 306 306 306 306 305 304 303 303 303 304 305 307 308 308 308 307 305 304 303 301 301 304 306 306 304 299 298 299 298 298 299 299 300 301 302 302 302 303 303 303 304 304 308 312 311 307 306 306 307 308 309 309 310 310 310 311 311 311 312 312 312 311 311 311 311 311 311 311 311 310 310 310 310 311 311 311 311 311 311 312 312
303 302 304 304 303 304 303 302 302 301 302 303 303 304 304 303 303 303 302 302 301 300 299 300 298 301 306 305 300 298 298 299 299 298 299 299 299 300 301 301 302 302 303 303 303 304 305 307 310 312 312 308 305 305 307 308 309 310 310 310 311 311 311 312 311 311 311 311 311 310 310 310 310 310 310 309 309 310 310 310 310 310 310 310 310 310
301 302 303 302 300 299 299 299 299 301 302 301 300 301 300 299 299 299 299 299 299 298 298 299 298 299 301 301 299 299 299 298 299 299 299 299 300 300 301 301 302 302 303 303 303 304 305 307 309 311 312 311 308 305 306 307 309 309 310 310 310 311 311 311 311 311 311 311 311 310 310 309 309 309 309 309 309 309 309 310 309 309 309 309 309 308
301 300 300 299 297 296 296 296 297 299 299 297 297 297 297 297 297 297 297 297 298 298 297 298 299 298 298 299 299 299 298 299 299 299 299 300 300 300 300 300 300 302 304 304 304 304 305 306 308 310 311 312 309 306 305 307 308 309 309 310 310 311 311 311 311 311 311 311 310 310 310 309 308 307 308 308 308 308 308 308 308 307 307 307 307 307
300 299 298 297 297 296 295 295 296 296 296 296 296 296 296 296 296 297 297 298 298 298 298 298 299 298 298 299 299 299 299 299 299 300 300 299 298 298 298 298 299 301 304 305 304 304 304 305 307 309 312 312 309 305 305 306 307 308 309 309 310 310 311 311 311 311 311 311 310 310 310 309 308 307 306 307 307 307 307 306 306 306 306 306 307 306
298 297 296 296 297 296 295 295 295 295 295 295 295 295 296 296 297 297 297 298 298 298 298 299 299 299 299 299 299 299 299 299 299 299 299 298 297 297 297 297 299 302 304 303 303 303 303 303 304 306 309 311 308 303 304 305 306 307 308 309 309 310 310 311 311 311 311 311 310 310 309 309 308 307 306 306 306 306 306 305 305 305 305 305 306 305
296 296 295 295 295 295 295 294 294 295 295 295 295 295 296 296 297 298 298 298 298 298 298 298 298 299 299 299 299 299 300 300 298 297 298 297 296 296 297 297 299 302 303 302 303 303 303 303 303 304 306 308 307 303 304 305 305 306 307 308 309 309 309 310 310 310 310 310 310 310 309 309 308 307 306 306 306 305 304 304 304 304 304 304 305 305
296 295 295 295 295 295 295 295 295 295 295 295 295 295 296 297 297 298 298 297 297 298 298 298 299 299 298 298 299 299 300 299 298 297 297 296 296 296 296 297 300 302 301 301 302 302 301 301 302 304 305 306 307 305 304 304 304 305 306 306 307 308 308 309 309 310 310 309 309 309 309 308 307 306 306 305 305 304 303 303 303 303 303 303 304 304
296 296 296 295 295 295 295 295 295 295 295 295 295 296 296 296 297 297 297 297 298 299 299 298 298 297 296 299 299 299 300 299 297 297 296 296 295 295 296 298 301 302 300 300 301 301 300 300 301 303 305 306 306 306 305 304 305 305 305 305 306 307 308 308 307 308 308 308 308 308 308 308 307 306 305 304 303 303 303 302 302 302 302 303 303 303
296 296 295 295 295 295 295 295 295 295 295 295 295 295 296 296 296 297 297 297 297 297 296 295 295 295 297 298 297 298 300 298 295 296 295 294 294 294 296 300 301 301 300 301 301 299 299 299 300 302 304 305 305 305 305 305 306 305 305 305 305 306 307 307 306 306 307 307 307 307 307 307 306 305 304 303 302 302 302 301 301 301 301 302 301 301
295 295 295 295 295 295 294 294 295 295 295 295 295 295 296 296 296 296 296 295 294 293 293 294 295 296 296 296 294 297 299 297 295 294 293 293 293 295 298 300 301 301 300 300 300 298 298 298 300 302 304 304 304 303 303 304 305 305 305 304 304 305 305 305 305 305 306 306 306 306 306 305 304 303 302 302 301 301 300 300 300 300 300 300 300 300
295 295 295 295 295 295 295 294 294 295 295 295 295 295 295 294 293 292 292 292 292 293 294 295 295 294 294 294 294 296 298 296 294 293 293 293 293 296 299 301 301 301 300 300 299 298 297 298 300 302 303 304 303 302 302 303 304 305 305 305 305 304 304 304 305 305 305 305 305 305 304 304 303 302 301 301 300 300 299 299 298 298 299 298 299 298
295 295 295 295 295 295 295 295 295 295 296 295 294 293 293 291 291 290 291 291 292 294 294 294 294 293 294 294 295 297 297 295 293 293 293 293 293 296 300 301 300 300 299 299 298 297 297 298 299 302 303 302 301 300 301 303 304 304 305 306 305 304 303 303 304 304 304 304 304 304 303 302 302 301 300 300 299 299 298 298 297 297 298 297 297 296
295 295 295 295 295 295 294 294 294 294 294 293 292 292 291 291 291 291 292 292 293 293 293 293 293 293 293 294 296 296 295 293 292 293 293 293 295 299 300 300 299 299 298 298 296 295 296 297 299 302 302 301 300 299 301 303 303 303 304 305 305 303 302 302 303 303 303 302 303 302 302 301 300 300 299 299 298 297 297 297 297 296 296 296 296 296
294 295 294 294 294 293 293 293 293 292 292 291 291 291 291 291 291 291 292 292 292 292 293 294 293 293 294 295 296 295 293 292 293 293 293 294 297 299 299 297 297 297 296 296 295 295 295 297 299 301 301 300 299 300 302 303 302 301 302 304 304 302 302 302 301 302 302 302 302 301 301 300 300 299 298 297 297 296 296 296 296 296 295 295 295 295
293 294 294 293 292 292 291 291 291 291 291 290 290 290 290 290 290 291 291 292 292 293 293 293 292 293 294 295 294 293 293 293 293 293 294 294 296 297 296 295 296 296 295 295 295 294 295 296 299 300 300 299 299 300 302 301 300 299 300 302 302 301 301 301 300 301 301 301 301 301 300 300 299 298 298 296 296 295 295 296 296 295 295 294 294 294
293 293 292 291 290 291 291 290 290 290 289 289 289 290 290 290 290 291 292 292 292 292 292 293 293 294 294 294 293 293 293 293 293 293 294 294 295 295 295 295 295 295 295 295 294 294 295 296 298 300 299 298 299 301 301 300 299 299 299 301 301 300 300 300 300 300 300 300 301 300 300 299 299 298 297 296 296 295 295 295 295 294 294 294 293 293
292 292 292 291 290 290 290 289 289 289 288 289 289 290 290 290 291 292 292 291 291 292 293 294 294 293 293 292 293 293 294 294 294 294 294 294 295 294 294 294 294 295 295 294 294 294 295 296 298 298 298 298 299 301 301 299 298 298 298 300 301 300 299 299 300 300 300 300 300 300 299 298 298 297 297 296 296 296 295 295 294 294 293 294 293 293
292 292 291 291 289 289 289 289 289 289 289 289 289 289 290 291 291 291 290 291 291 292 293 293 292 292 292 293 293 294 294 294 294 294 294 294 294 294 294 294 294 295 295 294 294 295 295 296 297 298 297 298 300 301 300 298 297 297 298 299 300 300 299 299 300 300 300 300 300 299 298 298 298 297 297 296 296 295 295 294 294 293 292 292 292 292
291 291 291 290 289 289 289 289 289 289 289 289 290 290 291 291 291 291 291 291 292 292 292 292 292 292 293 293 293 293 293 294 294 294 294 294 294 294 295 294 294 295 294 295 295 295 295 296 296 297 297 298 300 301 299 298 297 297 297 299 300 300 300 300 300 300 300 300 300 299 298 297 297 297 296 296 295 295 294 294 293 292 292 292 291 291
290 290 290 290 289 289 289 289 288 288 289 290 290 291 291 291 290 291 291 292 292 292 293 293 293 293 293 293 293 293 294 294 294 294 294 294 294 294 294 294 295 295 294 294 294 294 295 295 295 296 297 298 300 300 299 297 297 297 297 298 299 300 301 301 300 300 300 299 299 298 297 297 297 296 296 295 295 294 294 293 293 292 291 291 291 290
290 290 290 290 290 289 289 289 289 289 290 290 291 291 290 290 290 291 291 292 293 293 293 293 293 293 293 293 293 294 294 294 294 294 294 294 294 295 295 295 295 294 294 294 294 295 295 295 296 296 296 298 299 299 298 297 297 297 297 298 299 300 301 301 301 300 300 299 298 298 297 297 296 296 295 295 294 294 293 292 292 291 291 291 290 289
291 291 289 289 290 290 289 289 289 289 289 290 290 290 290 290 291 291 292 292 293 293 293 293 293 293 294 294 294 294 294 294 294 294 294 294 294 294 294 294 294 294 294 294 294 294 294 295 296 296 296 298 299 298 297 297 297 297 298 298 299 300 300 301 301 300 299 298 298 297 296 296 296 295 295 295 294 294 293 292 291 291 290 290 290 289
291 291 291 290 290 290 290 290 290 289 290 290 290 290 290 291 291 292 293 292 293 293 293 293 293 293 293 293 293 293 292 292 293 293 293 293 293 293 293 293 293 293 294 294 294 294 294 294 295 296 297 298 298 297 297 297 297 298 298 299 299 300 300 300 300 299 298 297 297 297 296 296 295 295 295 294 294 293 292 291 291 290 290 290 290 289
291 291 291 290 290 290 290 290 290 290 290 290 290 291 291 291 292 293 293 293 292 293 293 292 292 292 291 291 290 290 290 290 290 289 289 290 290 291 291 291 292 292 292 293 293 293 293 294 295 297 298 297 297 297 297 297 297 298 299 299 299 300 300 300 299 298 297 297 297 296 296 295 295 295 294 294 293 293 293 291 291 290 290 290 290 290
291 291 291 290 290 290 290 290 290 290 290 290 290 291 292 292 292 292 292 291 291 291 290 289 287 286 285 284 284 284 284 283 283 282 283 284 284 285 285 286 287 289 290 291 292 292 293 295 296 297 298 297 296 296 297 297 298 298 298 299 299 299 299 299 298 297 297 296 296 295 295 295 294 294 294 293 293 293 293 292 291 291 291 290 290 290
291 291 291 290 290 290 290 290 290 290 290 290 291 291 291 291 290 290 290 289 287 285 283 281 279 278 277 277 277 278 278 278 277 278 279 279 280 280 280 281 283 285 287 289 291 292 294 295 296 297 297 297 296 296 297 298 298 298 298 299 299 299 298 297 297 296 296 296 295 295 295 295 294 294 294 293 293 293 292 292 292 291 291 291 291 291
291 291 291 290 290 290 290 290 290 290 291 291 290 290 289 288 288 287 285 282 279 277 276 275 275 274 274 274 275 275 275 275 275 276 277 277 277 277 277 278 280 283 286 288 290 292 294 295 296 296 297 297 296 296 297 297 297 298 298 298 299 298 297 296 296 296 295 295 295 294 294 294 294 294 294 293 293 293 293 292 292 292 292 292 292 292
291 290 290 290 290 290 290 290 290 290 289 288 288 288 288 287 285 281 278 276 274 274 273 273 273 273 273 273 273 273 274 274 275 275 275 276 276 276 276 276 278 281 285 288 290 292 294 295 295 296 297 297 296 296 296 297 297 298 298 298 299 298 297 296 295 295 295 295 294 294 294 294 294 294 294 293 293 293 293 292 292 292 292 292 292 292
291 291 290 290 289 290 290 289 288 286 285 286 287 286 285 283 279 275 273 273 272 272 272 271 271 271 271 272 272 272 273 273 274 274 275 275 276 276 276 276 276 279 284 288 290 292 294 295 295 296 296 296 295 295 296 297 297 298 298 298 298 297 296 296 295 294 294 294 294 294 294 294 294 294 293 293 293 292 292 292 291 292 292 292 292 292
Wind_Speed
2 1 4 5 8 9 7 7 9 11 9 5 5 6 9 10 10 13 12 7 5 4 13 10 9 20 24 24 30 24 8 8 9 9 11 11 12 12 14 17 16 16 16 13 15 21 26 30 32 32 33 34 34 36 38 39 39 39 39 39 37 37 39 39 38 38 38 38 37 35 36 37 35 35 36 37 38 39 38 37 35 35 35 35 34 34
2 1 7 10 10 10 7 7 8 10 8 5 5 7 9 9 10 13 12 10 3 4 12 12 10 19 23 23 28 25 16 10 9 12 14 14 13 13 15 18 18 16 13 9 11 15 20 26 29 30 31 33 33 36 39 41 42 41 40 40 41 39 38 40 41 39 37 38 39 36 35 36 35 36 37 37 38 40 40 39 38 37 35 35 35 35
2 5 12 11 6 4 6 6 7 9 8 5 4 5 8 7 8 11 11 10 3 5 10 11 8 16 21 23 28 26 20 14 12 14 14 14 14 13 14 16 17 17 13 10 12 11 13 21 27 29 30 34 37 39 41 42 43 43 41 41 41 41 41 40 40 40 38 38 40 38 36 36 35 36 38 38 38 40 41 40 40 38 37 37 36 35
4 8 10 7 3 3 7 6 5 8 6 4 4 4 8 8 6 8 10 10 4 4 10 8 4 11 18 21 25 26 19 11 10 12 13 12 13 15 15 15 15 18 16 12 12 11 11 15 20 25 29 34 36 36 38 39 41 42 43 42 42 42 44 43 40 40 39 36 37 37 37 38 37 36 38 37 37 39 40 40 41 40 39 39 38 37
10 13 7 5 5 4 7 7 5 6 6 6 6 6 9 11 10 11 10 8 7 9 13 8 2 6 13 19 22 21 16 10 7 8 11 10 11 14 15 16 17 17 17 15 12 12 11 13 17 25 30 32 33 35 39 42 43 44 45 46 44 43 43 43 43 42 38 33 33 34 33 34 34 35 37 37 37 39 39 41 42 41 41 40 40 39
11 11 5 5 6 2 2 7 5 4 6 8 7 8 11 13 13 13 11 7 5 10 12 7 4 4 8 16 22 18 17 19 14 10 14 13 11 12 13 16 18 17 16 14 13 12 12 14 16 21 26 29 31 36 42 46 47 46 47 47 45 43 43 43 43 44 41 35 33 34 33 32 33 34 36 39 41 40 39 41 42 43 43 42 41 40
6 5 4 3 6 6 4 7 6 5 3 8 7 5 7 10 10 10 9 4 2 9 9 2 4 8 6 12 23 20 18 25 23 19 20 16 12 12 13 14 15 15 14 12 11 11 12 14 15 17 24 30 34 40 44 46 46 46 46 47 46 44 43 43 43 44 43 40 36 36 36 36 35 34 34 39 43 43 41 40 42 43 43 43 42 41
3 8 8 6 6 7 5 8 7 6 2 8 5 5 7 9 11 10 7 6 5 7 11 5 5 7 7 11 22 21 19 25 24 24 23 17 13 13 14 15 14 15 14 11 10 10 11 14 15 17 24 34 40 42 42 42 43 45 45 46 47 45 44 44 45 45 44 42 40 38 36 35 36 37 36 38 42 43 42 41 41 42 42 42 43 42
1 7 9 6 6 5 6 11 7 4 3 10 6 5 8 9 9 7 6 8 4 2 12 12 5 5 8 10 17 17 16 22 24 25 23 19 15 12 13 15 14 15 15 11 10 10 11 13 16 20 28 37 41 39 41 43 44 45 45 46 46 45 45 44 45 47 46 43 41 39 37 33 33 35 36 38 40 42 43 42 41 40 41 41 42 42
3 3 2 2 4 6 7 10 4 4 5 9 6 6 8 7 6 6 7 8 2 2 14 17 6 5 9 8 12 13 13 18 20 19 17 17 15 11 12 13 12 14 14 10 9 10 11 13 18 25 29 33 35 36 39 41 42 42 43 43 44 45 45 45 46 48 48 45 41 38 38 35 32 31 32 35 39 41 43 42 41 40 40 40 41 41
8 2 1 2 5 3 4 7 1 6 7 5 4 6 7 6 6 6 6 3 1 5 16 21 13 9 9 9 10 10 14 18 17 15 17 18 17 14 12 10 10 13 14 11 10 10 10 12 16 21 23 26 31 32 33 35 38 40 40 41 43 44 44 44 46 47 47 46 43 39 38 37 35 32 31 33 36 39 41 41 41 40 40 41 41 41
8 5 2 4 2 2 3 6 3 1 2 1 1 4 5 7 5 3 3 1 2 9 14 18 16 10 10 12 10 11 15 19 18 17 19 18 17 17 14 10 9 10 13 14 13 10 8 9 12 14 17 22 26 28 30 33 36 38 39 40 40 41 42 43 45 46 46 46 44 41 39 37 36 35 34 34 35 37 40 40 40 40 39 40 41 41
7 5 5 5 1 4 5 7 6 5 4 3 4 5 7 8 5 4 4 2 6 11 11 12 9 6 11 13 12 14 16 20 21 19 17 16 14 16 15 13 11 12 15 17 15 12 8 9 11 12 15 17 21 28 32 34 36 37 40 42 41 41 43 43 43 45 46 45 44 43 40 38 37 36 36 36 36 37 39 39 39 39 39 39 39 39
6 5 2 3 2 3 6 7 7 6 4 4 6 6 6 6 7 8 7 6 9 10 9 10 6 5 11 10 10 15 19 22 22 16 13 12 11 12 14 13 13 16 17 16 15 13 11 11 11 13 14 14 20 29 33 34 37 38 40 43 44 43 44 44 43 44 44 44 44 43 41 38 37 36 37 37 37 37 39 39 40 41 41 41 41 42
8 8 0 1 3 2 7 6 5 4 5 5 4 2 3 4 7 10 8 9 12 10 11 12 7 5 8 7 6 12 16 16 13 11 13 13 13 13 14 15 16 18 18 17 15 16 15 13 13 13 12 13 20 28 31 33 36 36 38 42 43 42 43 44 43 43 43 43 43 43 42 39 37 36 36 36 37 38 39 40 41 42 42 43 44 45
7 11 4 1 3 6 11 6 2 1 5 4 1 1 6 5 6 10 11 13 16 13 10 10 8 6 6 9 8 11 14 13 13 15 16 17 16 16 17 18 19 19 20 19 17 18 20 16 13 12 11 13 18 22 25 29 33 35 36 39 42 42 43 45 44 43 43 43 41 41 42 41 39 37 35 34 35 38 39 40 40 41 42 44 45 45
5 10 11 10 9 9 7 3 1 3 4 5 4 6 10 7 5 10 12 12 15 14 9 8 10 7 7 9 7 13 18 16 17 19 19 19 20 21 20 20 21 21 21 19 16 17 20 17 13 12 12 13 17 20 25 30 34 37 36 37 39 39 40 42 43 43 42 41 40 41 42 42 41 39 38 36 36 37 38 39 39 40 40 42 43 44
5 10 16 17 14 8 3 2 5 5 3 5 7 8 8 6 5 7 9 9 10 12 8 8 13 11 10 7 7 18 21 16 17 20 22 25 25 25 24 24 26 26 24 23 19 17 18 16 12 11 13 18 24 27 31 34 36 37 38 40 41 39 40 42 43 42 41 40 40 40 42 43 43 42 41 40 38 37 38 38 39 40 40 40 41 42
4 8 13 13 11 8 7 9 9 5 2 4 7 6 5 7 7 5 7 9 9 10 9 12 16 13 8 7 11 19 18 13 16 19 23 28 27 26 26 27 29 28 26 25 22 18 17 17 13 11 15 22 26 27 27 29 31 31 34 38 41 43 45 45 44 42 41 41 40 40 42 43 43 42 40 40 40 39 39 40 40 40 41 42 42 42
3 5 9 9 12 13 10 8 8 8 5 5 8 7 3 5 9 7 6 8 10 11 12 13 13 5 2 9 16 16 13 15 22 24 24 28 29 25 24 24 25 24 23 24 23 20 19 17 13 11 13 15 18 21 22 23 28 30 31 32 35 39 40 40 40 40 40 41 40 39 40 41 41 42 40 40 40 40 41 41 42 42 43 43 43 43
2 4 9 9 13 13 10 6 5 8 8 8 10 11 8 7 8 8 7 7 8 9 9 10 10 5 5 12 14 13 18 23 26 28 27 27 28 26 23 24 24 23 23 24 23 22 19 15 11 10 11 9 11 17 20 21 25 29 31 31 33 35 36 37 38 39 40 40 39 39 40 41 42 42 41 40 41 41 42 42 43 44 43 43 44 43
2 3 8 10 10 10 12 10 8 11 12 11 11 11 11 9 8 8 7 5 6 8 9 11 15 11 5 8 11 15 23 25 25 29 28 27 28 27 24 25 24 23 22 24 24 22 18 14 10 10 10 8 8 13 19 21 23 25 28 30 31 32 35 37 39 40 40 40 39 40 42 43 42 42 42 41 42 42 42 43 45 45 44 44 44 44
1 3 6 8 9 11 17 17 14 14 14 13 11 9 8 7 8 9 9 9 9 12 12 12 15 11 2 6 14 16 18 20 22 26 28 27 28 27 27 27 26 25 24 24 23 21 18 15 11 8 8 8 10 14 19 21 23 25 27 28 30 32 35 37 39 40 41 40 40 41 41 42 42 42 42 43 43 44 44 45 45 45 45 45 45 45
3 3 6 8 8 12 18 15 10 9 9 9 10 9 9 10 10 10 11 11 11 12 11 10 13 10 3 6 12 14 17 19 20 23 25 24 23 25 28 27 26 26 26 24 23 20 19 16 11 8 8 9 9 12 17 20 22 24 25 26 29 31 34 36 37 38 40 39 39 39 39 40 42 43 44 44 44 45 46 46 46 46 46 45 45 45
4 4 6 8 9 12 13 9 6 5 6 8 11 13 15 17 17 15 12 10 10 12 13 12 12 9 6 9 15 18 21 21 20 20 20 19 18 21 24 24 24 25 25 24 24 23 23 20 15 11 8 7 7 9 12 14 16 18 22 25 27 29 32 34 36 37 39 38 37 38 39 39 41 43 45 46 45 46 46 46 46 47 47 46 46 46
2 4 5 5 7 12 13 9 8 8 7 8 12 17 18 18 18 16 11 9 10 14 14 12 13 13 13 16 20 21 22 22 21 19 18 17 18 19 20 21 23 22 21 24 25 24 24 23 20 16 10 7 6 7 9 10 11 15 20 24 26 28 29 32 34 36 37 37 37 38 39 40 41 43 45 46 46 46 47 46 47 47 47 47 47 46
1 5 7 6 8 13 15 14 13 12 12 13 16 19 18 16 16 14 10 10 13 14 13 11 16 20 19 18 21 22 22 19 17 17 17 17 18 19 20 21 21 18 18 21 21 21 23 24 24 22 16 10 6 8 12 14 16 18 22 26 30 31 31 31 32 34 36 37 38 38 39 41 43 44 44 45 45 45 46 46 47 48 48 48 48 47
2 6 10 11 13 18 20 19 17 15 16 19 20 21 19 17 18 17 14 15 16 15 12 13 18 21 20 20 23 23 19 14 12 14 15 15 17 18 20 22 21 17 18 20 20 22 23 23 23 22 20 16 12 10 13 15 20 24 26 29 30 30 32 33 33 34 35 36 36 37 40 42 43 43 43 42 41 42 43 44 46 47 48 48 48 48
2 8 12 13 15 20 21 19 17 17 19 20 21 22 21 19 20 20 20 22 20 16 15 18 21 22 22 22 21 18 13 10 10 12 13 15 17 19 21 22 19 16 19 21 20 21 22 22 22 21 19 18 17 16 15 15 18 21 23 26 27 28 31 33 33 35 35 35 36 38 39 40 40 40 40 39 38 39 41 43 44 45 45 46 46 46
4 7 11 11 13 18 20 18 18 19 19 19 20 22 21 21 23 25 24 23 21 17 18 22 24 24 21 17 15 14 10 8 10 12 13 15 19 21 22 19 15 16 19 19 18 19 20 21 21 21 19 17 18 18 18 18 19 20 22 24 26 29 31 31 32 33 34 35 37 38 38 38 38 38 38 38 38 39 41 42 42 42 42 43 44 43
4 6 10 11 10 14 18 17 16 16 18 20 21 22 23 23 23 22 19 17 17 18 21 23 23 20 14 12 14 14 9 8 13 15 15 16 18 21 21 16 14 18 20 19 18 19 20 20 20 20 20 18 18 19 20 23 24 23 23 23 25 30 31 29 30 31 33 35 36 36 36 37 37 37 38 38 38 40 41 41 41 42 42 42 42 42
4 5 8 8 8 12 15 16 17 18 19 20 21 21 21 19 17 16 16 17 18 20 22 21 17 13 11 14 16 13 9 10 15 18 18 17 18 19 17 14 14 17 20 19 18 18 20 21 20 20 20 19 18 21 24 28 28 26 24 24 28 31 30 29 30 31 32 32 32 34 35 36 36 37 38 39 39 40 41 41 41 41 41 41 42 43
5 5 6 6 7 10 13 16 18 17 15 13 13 15 16 16 19 21 21 23 22 17 15 14 12 12 15 16 16 15 14 14 15 16 18 19 20 17 13 12 14 17 19 19 18 19 20 19 17 18 18 17 18 23 30 32 28 28 29 30 33 32 30 31 33 33 32 30 29 33 35 35 36 37 38 39 40 40 40 40 40 41 42 43 43 43
6 7 6 6 6 9 13 16 14 12 10 7 8 15 18 20 26 25 22 23 21 16 14 14 14 17 18 16 14 15 15 16 17 17 17 18 19 16 12 12 14 17 19 19 18 18 18 17 17 17 17 19 24 29 33 33 31 33 37 36 36 33 31 32 33 33 33 32 31 32 33 35 36 37 38 39 40 40 40 40 40 40 41 41 41 41
7 7 5 4 6 8 10 11 10 9 7 10 17 23 22 21 23 23 21 22 22 19 18 17 17 19 19 15 12 12 15 19 21 18 17 17 16 13 12 12 14 17 19 19 19 19 18 18 18 16 16 21 29 33 31 30 32 38 42 37 32 31 31 33 33 33 34 33 33 33 33 36 37 36 37 38 39 39 40 40 40 39 38 38 39 41
5 5 4 4 6 8 6 6 9 10 10 19 26 23 16 14 17 18 18 22 24 20 15 16 20 21 19 14 12 13 16 19 20 16 13 14 13 12 13 14 15 18 19 19 20 19 19 18 17 18 19 23 30 32 28 28 32 38 43 36 28 31 32 32 32 32 34 34 35 36 36 37 37 36 36 37 37 38 39 40 40 40 39 38 38 38
5 3 4 5 5 7 7 7 10 12 12 18 22 16 9 10 15 16 14 19 23 17 12 18 23 19 14 13 16 20 18 17 18 14 10 11 13 12 14 16 16 18 19 19 20 21 22 23 23 23 24 25 29 29 26 29 32 35 39 33 23 28 28 29 29 30 34 36 38 39 39 38 38 37 36 37 37 38 39 40 40 41 40 39 37 36
4 3 4 6 5 6 8 8 9 10 10 14 20 18 13 16 19 15 10 14 18 15 13 16 18 15 15 18 22 23 18 15 18 16 9 10 14 14 16 19 18 18 18 18 20 21 23 27 27 26 26 25 26 27 25 29 32 31 32 28 20 23 23 24 28 31 34 37 39 40 40 40 39 38 38 39 39 39 40 40 40 41 43 43 41 40
5 2 3 6 6 5 6 7 8 8 9 17 23 21 18 20 18 13 10 13 15 13 11 12 15 18 20 21 20 18 14 12 16 17 12 11 15 17 19 20 19 19 20 20 22 22 24 29 31 29 26 22 23 25 24 28 31 27 25 25 19 19 18 21 28 34 37 39 39 37 37 38 40 40 41 42 41 41 41 41 40 40 41 42 42 42
5 3 3 6 7 7 7 8 8 6 11 19 23 20 19 19 15 11 13 14 13 15 15 16 20 22 20 19 17 15 13 13 15 19 18 15 17 18 18 19 21 21 21 22 25 29 31 33 30 23 19 19 21 22 22 26 28 23 21 24 19 13 17 23 31 36 38 39 37 34 34 37 40 42 43 44 43 41 40 39 38 39 39 39 38 38
4 3 4 6 9 9 9 10 8 7 13 20 21 18 16 14 12 10 13 13 15 20 22 21 24 23 19 18 15 12 14 16 18 23 24 20 19 19 17 20 22 22 23 24 28 34 34 31 28 23 21 24 24 20 21 24 22 19 21 22 16 13 20 28 32 33 34 34 34 35 37 39 41 43 45 45 44 41 39 39 39 39 39 37 35 35
5 3 4 7 9 8 7 9 9 10 13 14 14 14 11 9 10 11 12 14 18 22 23 22 23 22 20 19 16 15 18 21 22 26 26 21 20 20 20 22 23 23 24 26 31 33 29 26 25 23 25 29 26 21 22 23 18 17 19 17 15 20 27 30 30 28 27 28 30 33 37 39 41 42 41 42 44 43 41 40 40 40 40 38 36 35
7 5 5 7 7 7 7 8 9 10 11 9 11 13 10 7 10 13 14 18 20 21 21 20 20 20 18 18 18 18 22 25 26 28 28 25 23 22 22 23 23 24 23 22 25 29 26 22 21 21 25 30 26 22 24 22 17 16 16 16 21 28 30 31 30 27 25 27 29 32 35 39 40 39 38 40 44 44 42 40 39 39 39 38 36 34
6 4 4 5 6 6 6 7 8 12 15 13 11 12 13 14 16 16 16 18 18 18 18 17 18 20 18 17 21 22 25 28 28 28 30 29 25 22 23 24 23 24 24 20 21 26 26 22 20 20 25 28 25 23 25 21 16 15 16 21 29 30 28 30 31 28 26 28 30 31 34 37 38 38 39 42 44 42 39 39 40 38 37 37 36 33
6 6 6 7 8 9 9 12 14 16 18 16 12 14 19 22 21 20 19 20 18 16 15 14 18 22 21 20 23 25 25 29 31 30 30 30 27 22 22 24 23 23 23 21 21 25 25 21 20 20 22 24 25 25 25 22 18 16 19 28 33 29 27 28 29 28 27 28 29 31 32 34 36 38 39 41 44 44 40 39 39 37 36 36 35 32
8 9 7 8 12 14 15 18 19 19 19 19 16 17 20 22 22 21 20 18 16 16 16 16 18 22 23 23 24 23 24 28 31 31 29 29 27 22 20 22 23 21 21 21 21 23 22 20 20 19 18 20 24 25 24 24 21 19 24 32 33 30 28 27 27 28 28 29 30 32 34 34 34 36 36 36 40 44 45 43 40 37 36 35 33 33
6 6 5 9 14 13 13 17 20 20 21 20 18 20 21 19 18 18 17 16 18 20 21 22 24 26 27 27 26 26 28 29 30 29 28 29 28 24 21 23 24 22 21 22 21 21 19 16 17 17 16 17 22 23 23 25 25 25 28 33 34 32 29 25 25 26 26 28 29 31 35 35 33 34 35 35 35 35 39 44 42 38 36 35 33 31
4 3 6 12 15 13 15 20 23 25 25 18 14 15 16 17 22 25 24 21 20 21 22 23 24 24 25 28 28 26 28 30 28 26 26 27 25 22 20 21 23 23 23 22 21 19 17 15 16 16 15 15 19 23 24 25 29 30 30 33 34 31 25 22 24 24 24 26 28 29 33 35 35 34 34 36 36 33 34 40 41 39 39 41 40 34
4 5 9 13 13 12 17 21 22 25 26 19 14 15 16 18 25 29 27 23 21 20 20 23 24 22 21 25 27 27 29 31 28 26 26 26 25 23 22 22 24 24 21 19 18 17 16 14 15 15 15 15 19 23 24 26 31 32 31 32 32 27 20 20 22 22 22 24 25 27 29 32 35 35 34 34 36 35 35 39 44 43 42 45 49 48
4 9 10 10 9 11 17 19 18 17 19 21 25 27 24 21 21 21 21 22 23 22 23 26 30 29 27 25 23 22 26 30 30 27 26 26 25 24 25 25 25 24 21 18 17 16 14 13 14 15 14 15 19 22 23 26 31 32 29 28 27 23 20 19 18 17 18 20 20 23 25 26 29 32 32 31 32 31 29 31 38 40 39 43 51 55
6 11 10 8 10 15 19 20 18 13 14 22 31 34 27 19 17 20 21 22 25 27 26 28 31 33 34 32 27 21 23 29 31 29 27 27 27 25 24 23 23 24 23 18 15 15 14 13 13 13 12 15 19 22 23 25 29 29 27 25 23 21 20 19 14 10 13 17 19 22 25 25 25 27 29 29 30 29 24 22 26 30 31 34 43 49
Wind_Direction
83 4 291 238 251 259 243 219 225 253 262 266 274 261 264 270 274 277 278 265 203 245 280 263 247 272 281 285 287 293 278 243 258 256 254 252 254 258 257 261 259 251 251 243 231 225 218 213 211 206 202 200 201 201 200 200 202 202 200 199 200 200 199 200 199 194 190 189 191 191 191 193 194 193 193 195 196 195 196 197 196 194 194 195 195 196
70 291 260 236 243 259 259 244 244 265 272 259 248 267 272 263 269 275 278 283 210 186 274 276 268 275 281 284 285 290 291 273 262 257 259 258 253 256 257 260 263 258 256 247 231 221 213 210 207 202 199 196 195 198 199 200 201 202 200 200 201 200 199 200 200 197 192 189 190 192 191 191 191 192 193 195 196 197 196 197 197 194 193 195 195 195
20 250 255 253 253 273 271 252 252 266 266 252 232 260 276 271 280 284 281 283 233 169 272 279 269 277 282 285 286 288 290 282 264 250 250 254 254 255 256 259 266 268 265 245 232 221 206 205 201 198 197 196 196 197 199 200 199 200 201 201 200 200 201 202 202 201 200 195 192 192 192 190 189 191 194 197 198 198 196 196 196 194 192 193 194 195
309 264 255 264 282 299 286 270 263 276 274 244 224 244 273 281 287 286 285 290 285 228 267 273 252 281 287 288 286 285 287 279 254 245 242 242 247 253 256 260 266 269 269 255 235 221 208 203 198 197 198 197 197 197 197 198 198 198 200 200 200 199 200 203 204 204 204 200 194 193 192 191 191 191 193 197 199 199 197 195 194 194 193 193 194 195
271 275 281 298 294 287 285 292 289 281 290 265 231 224 258 275 266 261 279 308 321 283 273 276 256 271 279 282 283 286 292 283 253 253 260 251 243 253 263 267 266 263 264 260 245 224 206 203 202 202 200 195 194 196 196 196 197 198 199 199 200 199 200 202 205 206 206 201 193 189 186 186 187 186 186 190 194 196 197 195 193 194 195 194 195 195
269 280 304 311 307 334 295 300 288 239 286 295 265 235 237 258 263 263 287 332 341 289 282 284 277 261 258 271 277 283 293 289 283 278 273 267 253 251 260 265 266 264 261 256 246 230 209 207 208 204 200 196 196 199 198 197 197 197 198 198 198 199 199 200 202 204 205 202 193 183 180 179 177 178 182 185 188 192 195 194 193 194 195 196 196 196
286 315 2 333 309 331 330 299 264 199 279 294 277 269 243 249 264 269 286 308 255 274 287 263 251 274 264 265 273 281 290 289 290 289 281 278 265 252 253 258 264 267 265 257 245 231 214 210 208 204 202 199 201 202 199 198 198 197 196 195 196 197 197 197 198 199 201 202 198 189 185 184 182 181 184 186 187 190 194 194 193 194 195 196 196 196
291 318 329 326 312 323 325 293 263 166 195 274 286 346 309 278 280 275 267 253 232 275 291 262 200 258 264 259 270 278 287 287 288 288 285 284 271 255 253 257 262 266 266 263 253 235 219 213 208 207 206 204 205 203 197 196 197 196 195 194 194 195 195 195 196 195 197 199 201 198 193 190 190 188 186 185 185 188 191 194 195 194 194 195 196 196
254 297 301 309 320 315 276 276 281 129 194 278 305 334 293 277 275 266 251 255 251 300 285 268 182 227 259 256 268 276 279 280 281 280 284 287 278 264 259 262 266 271 272 266 257 243 225 217 213 211 210 210 208 202 196 196 195 194 195 193 192 193 193 194 193 194 197 199 200 202 200 197 195 192 188 183 182 184 187 192 195 196 194 194 195 197
263 253 274 303 293 283 277 286 302 138 230 279 312 298 280 276 257 240 243 255 245 214 267 266 224 226 262 252 261 273 270 269 273 276 281 282 279 273 267 270 274 279 285 280 265 252 232 223 221 217 215 213 210 204 200 197 194 193 193 191 190 192 193 193 193 193 195 199 201 203 203 202 198 192 187 182 181 182 185 189 194 196 195 193 194 195
276 265 142 233 257 251 308 312 261 184 241 291 335 301 290 286 261 237 242 240 157 230 255 260 247 235 260 256 244 250 259 266 273 279 282 283 287 286 275 274 280 286 299 301 284 266 247 238 232 222 217 214 209 206 203 198 194 193 192 191 191 192 192 192 193 192 194 197 201 204 205 204 200 193 187 183 182 182 183 186 191 193 194 194 194 195
301 323 274 252 267 76 15 317 308 190 282 354 351 305 308 296 278 255 269 125 207 246 252 260 257 239 248 258 250 245 256 267 274 277 280 283 287 290 295 305 305 301 306 302 294 292 279 256 238 221 214 211 205 201 201 199 195 192 191 191 192 192 193 193 192 192 193 195 200 204 206 206 202 196 191 188 187 184 183 185 187 189 191 192 194 194
297 281 263 279 308 72 22 330 326 346 3 14 333 318 317 305 296 280 280 249 237 252 259 266 266 243 246 259 265 267 269 273 276 279 282 286 290 300 316 327 324 316 311 309 313 316 295 259 239 222 213 205 199 199 199 197 194 191 190 190 191 193 193 193 193 193 193 195 199 203 206 207 204 199 194 192 191 188 186 186 186 186 188 190 191 193
301 256 225 322 301 77 19 335 311 317 333 327 306 301 305 305 302 284 272 267 257 258 274 285 293 271 265 273 268 262 264 267 275 288 301 312 322 326 328 328 328 326 323 323 326 322 298 268 251 234 219 205 201 201 198 195 193 192 190 190 191 193 193 193 193 193 193 195 199 201 204 205 203 200 197 194 193 191 189 188 188 188 188 189 191 193
314 293 214 8 278 341 341 297 245 260 272 255 225 226 266 271 285 287 285 285 280 278 284 288 289 260 271 298 277 250 256 266 289 328 344 349 350 341 334 335 338 335 332 332 333 331 322 295 269 252 235 218 209 203 198 196 194 193 193 191 191 192 191 191 192 193 193 195 198 200 203 204 203 201 198 195 194 192 191 191 190 191 191 192 194 195
299 284 276 287 278 315 318 297 200 241 276 264 156 314 295 290 279 279 277 276 280 284 279 274 266 240 267 298 290 277 284 302 336 353 353 349 346 340 337 337 336 335 333 333 335 335 333 318 287 267 257 238 222 210 202 200 196 195 195 192 191 191 190 190 191 192 194 194 195 197 200 203 204 202 199 196 195 194 193 193 192 193 193 194 196 196
289 286 297 311 313 309 300 300 350 313 293 303 320 297 292 295 278 277 276 267 272 279 271 263 269 271 295 296 308 326 323 331 345 347 340 334 334 332 332 331 328 328 326 323 324 327 330 324 296 272 266 249 230 216 209 205 200 197 196 192 192 192 191 192 192 192 194 193 194 196 198 201 204 205 202 198 196 195 194 194 194 194 195 195 195 196
283 289 298 306 310 307 308 311 281 263 260 295 304 301 296 286 263 278 290 280 272 275 272 270 278 294 302 295 355 348 330 329 335 333 329 328 330 329 327 326 322 320 319 314 313 318 323 321 298 272 261 246 233 222 213 208 204 200 197 192 190 190 191 193 193 193 193 193 193 194 196 199 202 204 204 202 200 197 194 194 194 193 194 195 195 195
296 293 293 300 309 322 341 324 298 288 271 268 287 314 324 302 297 297 294 295 293 287 289 283 281 287 288 294 337 330 315 319 324 324 325 323 324 324 321 320 318 317 317 313 313 316 319 318 304 276 259 249 243 238 225 212 206 205 204 198 192 191 192 192 193 192 192 193 193 193 194 196 199 201 202 201 200 198 195 195 194 194 195 196 196 196
330 300 286 308 331 333 333 318 307 319 331 319 314 317 299 281 294 292 280 292 297 289 291 290 281 278 312 310 315 310 307 322 321 318 320 317 317 318 317 316 315 316 315 312 312 315 315 313 304 283 271 266 266 264 248 222 208 206 208 207 200 194 192 192 192 191 192 194 194 193 193 194 197 200 200 199 198 196 197 197 195 196 197 197 197 197
355 289 283 314 331 323 310 295 311 326 330 332 319 305 294 286 289 286 271 275 288 289 297 300 289 289 316 305 307 315 318 320 318 315 314 313 313 315 315 314 313 313 313 309 309 313 313 308 296 278 268 267 278 279 267 243 222 210 206 207 205 197 192 191 192 192 193 195 194 192 192 194 196 197 198 198 196 196 197 197 197 198 198 198 199 199
17 289 284 302 310 297 288 296 326 329 319 308 296 293 297 299 303 302 289 286 300 297 297 299 293 289 292 297 311 322 316 313 314 311 310 311 314 316 316 314 312 311 309 306 305 308 308 301 285 269 256 238 231 245 250 245 235 222 211 207 206 201 195 192 192 192 193 194 195 193 192 193 194 195 195 196 196 196 197 196 197 198 197 198 201 202
296 249 258 278 289 287 290 302 314 308 298 290 285 292 303 309 315 309 299 301 300 288 285 284 283 285 313 310 307 309 303 304 310 309 309 313 315 318 318 316 315 312 307 303 302 304 304 297 284 267 254 238 217 218 229 232 230 227 219 210 207 205 201 196 193 193 192 193 195 194 192 192 193 193 194 195 196 197 198 197 197 197 197 199 201 203
312 290 281 287 293 288 288 295 302 300 304 299 291 296 301 300 298 289 286 292 288 281 287 283 272 279 327 314 299 300 302 305 306 304 307 313 319 324 324 325 327 322 316 310 305 303 302 297 291 281 261 250 235 221 222 222 223 227 225 217 213 211 205 199 196 194 193 194 195 194 192 191 192 193 194 196 197 198 198 199 198 198 198 199 199 199
312 318 321 312 308 301 295 299 311 325 330 307 295 297 297 297 300 297 291 289 283 283 291 290 280 287 324 313 302 305 306 304 303 309 320 328 335 337 334 335 334 328 326 325 322 319 315 308 302 292 268 249 246 235 228 225 224 230 230 225 222 219 211 202 197 195 194 194 194 194 194 192 192 193 195 197 198 199 199 198 197 196 195 195 195 195
287 292 308 302 298 297 296 300 310 317 308 285 283 288 290 295 299 298 295 290 285 284 284 281 283 293 307 308 306 305 305 307 316 332 344 345 344 342 337 335 331 327 331 336 339 339 335 331 321 308 286 251 226 212 217 223 228 237 240 236 231 227 220 210 201 197 195 194 194 195 195 194 194 195 195 196 196 197 197 195 193 192 192 192 192 193
256 259 266 257 259 272 277 284 293 296 289 282 283 285 288 294 293 289 286 278 276 279 276 268 279 291 301 308 306 304 309 320 336 347 346 341 341 340 334 330 325 325 333 341 344 345 345 344 337 329 319 299 260 217 212 210 213 225 233 236 232 227 225 218 208 201 197 195 195 196 196 196 196 197 197 197 196 196 194 193 192 191 190 190 190 190
276 272 278 270 264 269 275 282 289 289 285 286 290 290 291 293 287 280 275 273 276 281 280 280 287 294 303 306 302 306 320 339 346 341 335 332 334 334 330 325 321 325 336 341 343 343 342 340 336 335 332 325 313 279 248 227 219 221 224 230 231 226 222 220 213 206 200 197 197 197 198 198 198 198 199 199 198 195 193 191 190 189 188 188 188 189
263 270 278 273 270 275 279 286 292 291 287 288 290 291 291 289 283 279 277 276 278 281 286 296 300 301 302 301 302 314 331 337 325 322 324 326 330 331 327 322 321 328 335 337 339 338 335 332 330 328 327 330 330 314 290 263 243 234 230 231 231 228 225 221 216 210 203 199 200 200 199 198 198 198 199 199 197 194 191 189 188 188 187 187 188 190
238 264 276 277 278 279 281 286 287 285 285 287 288 289 291 289 284 282 281 280 283 286 291 299 302 300 299 302 310 318 318 311 314 317 319 324 330 329 325 322 320 323 327 331 332 330 327 325 325 322 321 327 333 329 316 294 271 252 241 234 230 229 228 223 220 215 206 202 202 201 198 197 197 196 195 196 195 191 190 189 187 186 186 187 189 189
251 277 285 291 289 281 283 285 282 282 288 291 292 293 292 289 283 281 284 292 298 297 298 302 302 300 300 304 311 315 316 320 322 320 318 322 327 326 322 318 314 316 321 323 323 323 322 320 321 322 323 326 329 329 322 312 298 274 251 236 229 229 226 222 223 222 215 208 203 199 197 195 194 192 191 192 191 189 188 187 186 185 185 186 187 187
273 281 291 297 287 281 289 294 293 294 293 291 292 291 289 287 286 292 302 305 301 299 301 303 301 298 304 309 311 315 319 315 314 316 318 320 322 321 313 304 303 311 316 317 317 320 320 319 319 321 322 324 328 325 318 315 310 293 268 243 231 228 221 215 220 226 226 218 205 196 195 194 191 189 189 189 188 186 186 185 184 183 183 184 184 185
271 279 292 291 281 284 291 293 296 298 292 285 286 285 287 296 301 305 306 300 297 298 297 294 294 299 304 307 309 313 311 307 310 316 318 318 318 312 296 286 297 307 310 311 313 314 315 317 317 317 318 319 320 319 314 311 307 298 283 259 239 228 216 211 214 221 227 226 213 201 195 191 189 188 187 187 186 185 184 183 182 182 183 184 184 184
273 273 277 281 280 284 288 291 292 285 279 292 294 288 295 303 301 298 297 294 293 288 283 285 292 296 296 298 302 304 304 305 309 311 311 311 309 300 283 280 295 305 307 307 307 309 312 315 312 311 311 311 314 315 313 311 311 310 299 274 246 227 213 209 210 214 220 223 217 208 198 191 190 189 187 186 184 182 182 182 183 183 184 184 183 182
272 272 274 274 274 281 292 297 286 267 283 311 299 290 293 294 289 289 291 289 286 282 285 290 291 290 291 293 291 288 294 302 304 304 304 300 293 283 278 284 297 305 306 305 305 307 310 312 310 307 306 309 315 315 314 316 320 320 312 287 249 221 210 207 207 210 215 217 216 211 201 193 191 189 186 185 183 181 181 182 183 183 183 183 183 184
256 267 272 265 275 290 299 292 281 281 299 297 288 287 295 295 293 297 298 293 290 291 296 294 290 290 291 288 286 289 299 303 299 293 289 285 275 268 276 288 300 304 303 303 304 305 308 309 305 300 300 307 313 313 314 320 324 323 316 296 247 215 209 207 206 208 209 211 212 209 203 196 191 188 186 183 181 181 181 182 183 183 182 183 184 186
240 253 282 281 281 291 290 282 282 290 295 287 282 287 303 299 293 296 297 293 293 297 302 294 291 291 290 293 299 302 306 306 297 290 281 277 273 270 278 289 297 299 298 299 300 300 303 303 299 296 296 302 309 310 314 322 325 324 319 301 248 213 209 207 208 210 208 208 209 206 202 198 191 186 183 182 182 182 183 183 183 182 182 181 182 184
251 238 270 283 278 284 293 292 288 292 292 282 283 291 299 292 289 291 291 288 290 296 298 290 290 295 300 303 304 305 309 307 296 293 291 286 286 286 289 292 294 295 296 298 300 301 302 302 300 296 294 297 303 307 312 321 323 322 321 306 257 219 212 209 210 210 208 210 209 204 200 196 191 185 182 182 184 185 183 183 183 183 182 181 182 184
306 290 262 278 277 277 286 284 282 286 279 276 284 294 298 295 300 311 304 288 292 301 296 285 289 297 300 300 300 301 304 298 290 291 294 291 291 292 293 292 292 295 295 295 298 301 302 303 301 296 292 292 298 303 310 319 320 319 321 312 277 232 218 218 215 212 210 210 209 205 200 194 190 186 184 184 185 185 183 183 183 183 183 183 183 184
328 319 284 279 276 276 280 277 273 265 265 274 283 289 290 296 312 321 300 292 302 307 301 295 296 296 295 295 295 292 289 285 284 287 291 290 287 285 284 285 289 292 293 295 298 300 301 303 301 293 288 288 292 297 304 314 317 316 317 314 296 250 229 229 224 218 215 211 207 203 199 195 192 189 186 185 184 183 183 182 181 181 182 182 183 183
299 284 267 269 276 282 283 277 273 267 269 276 281 284 292 308 317 299 284 292 303 301 299 298 295 293 292 292 290 283 277 274 274 280 286 288 284 278 276 280 284 286 287 290 297 300 300 299 295 286 283 288 289 291 300 308 312 311 310 311 304 275 254 243 233 228 222 213 205 199 196 196 196 193 189 185 181 178 180 181 181 181 180 180 181 181
287 272 254 264 276 281 271 270 279 277 266 269 281 290 300 311 297 282 283 291 292 291 292 291 289 290 290 285 280 277 278 277 276 279 282 282 280 279 280 282 283 283 284 287 292 294 294 294 291 285 284 290 290 290 299 306 307 305 306 304 297 289 276 259 245 237 230 219 209 200 194 194 196 195 190 184 178 175 177 180 181 181 179 178 178 179
281 280 268 265 273 278 269 270 281 279 273 287 310 309 304 286 278 283 288 286 283 285 288 287 285 286 285 282 280 280 281 282 282 283 283 282 280 279 280 282 284 284 285 285 286 287 288 290 289 282 283 289 289 289 297 304 304 302 301 294 291 292 285 269 253 239 226 217 210 202 196 193 194 192 187 182 179 176 175 176 178 179 178 177 176 176
259 248 260 266 270 278 271 255 254 267 282 301 312 298 286 281 282 286 289 287 286 287 287 286 286 286 286 287 290 291 290 289 288 287 287 286 283 281 280 281 281 282 283 280 279 283 285 285 282 278 281 284 281 283 293 299 298 296 292 288 290 290 284 270 254 234 217 209 205 200 196 193 190 189 187 184 180 176 173 173 174 176 178 178 175 175
242 243 265 273 262 257 257 256 260 270 281 289 287 278 280 284 284 282 281 282 284 287 289 292 294 296 298 298 297 296 293 291 289 288 287 287 287 284 281 281 280 280 282 281 280 282 282 279 275 276 279 277 274 279 289 292 290 285 284 286 288 286 281 269 250 228 212 203 199 196 194 191 188 188 189 186 180 175 173 174 173 174 178 178 176 177
248 252 260 264 263 261 261 264 268 272 275 279 280 279 279 280 281 282 282 285 290 295 299 301 301 303 306 306 303 299 295 293 293 293 294 294 292 289 288 286 284 282 281 281 280 280 278 274 274 276 275 272 274 281 288 288 282 276 279 284 285 283 280 266 242 224 211 200 195 191 188 186 186 187 189 190 187 179 174 174 174 174 176 177 179 181
250 247 245 257 266 271 273 273 275 276 276 281 286 284 280 281 287 292 293 296 301 304 308 312 313 314 313 309 304 301 299 297 296 297 297 295 292 294 296 292 287 284 281 279 278 278 276 273 274 273 271 274 280 285 288 287 283 278 279 283 284 283 277 257 232 220 209 198 191 187 184 183 183 183 184 189 193 188 178 175 176 176 175 178 181 182
281 282 268 263 265 270 275 278 282 281 278 278 281 286 296 307 306 302 301 304 309 313 316 317 314 313 310 304 301 299 296 292 292 294 295 292 291 296 299 294 289 286 281 277 276 275 273 271 270 270 271 276 283 287 288 287 286 284 283 283 281 279 270 243 222 214 204 193 186 182 182 182 181 181 182 185 191 193 185 178 178 180 181 182 181 181
298 285 271 270 276 282 278 280 289 293 291 294 298 297 303 306 302 303 309 317 321 322 320 313 307 302 298 295 297 298 295 290 289 290 289 287 289 293 296 294 291 287 282 280 278 273 269 270 269 271 274 276 281 287 289 288 288 288 286 283 281 274 257 230 216 208 198 190 184 181 181 182 181 182 183 183 187 194 194 186 184 186 186 185 185 187
268 268 271 278 287 287 283 290 309 316 309 310 309 305 307 312 313 316 324 325 322 320 318 313 309 306 302 296 292 292 291 290 289 288 285 284 285 286 288 291 291 288 286 284 280 274 271 271 271 272 275 278 284 289 290 289 289 289 288 284 279 267 244 222 209 202 193 187 183 180 179 181 183 183 183 183 185 192 198 196 193 191 188 187 190 193
239 263 277 290 287 283 289 305 326 328 303 300 304 309 318 334 334 325 323 321 317 316 315 313 311 311 309 304 298 290 284 284 286 285 282 281 282 281 282 286 287 285 282 280 278 279 277 275 276 276 278 286 291 291 291 290 290 292 292 287 276 260 237 214 200 194 190 185 183 180 178 180 182 182 182 183 183 185 189 193 197 199 198 196 195 196